Location: Poughquag
(41.6090°N, 73.6820°W)
Time: 07:26:05
(UTC-04:00)

Vanguard 1 - Visible Passes

Search period start: 29 May 2020 00:00
Search period end: 08 June 2020 00:00
Orbit: 649 x 3834 km, 34.3° (Epoch: 29 May)

Date Brightness Start Highest point End Pass type
(mag) Time Alt. Az. Time Alt. Az. Time Alt. Az.
30 May 13.4 03:16:20 10° SSE 03:23:49 15° ESE 03:32:59 10° E visible
31 May 13.2 03:33:55 10° S 03:43:47 22° SE 03:57:02 10° E visible
01 Jun 13.0 03:52:43 10° S 04:03:53 29° SE 04:19:52 10° E visible
02 Jun 12.9 04:12:08 10° SSW 04:24:07 36° SE 04:42:08 10° E visible
03 Jun 13.1 02:20:16 10° SE 02:24:51 12° ESE 02:30:13 10° ESE visible
03 Jun 12.8 04:31:58 10° SSW 04:44:32 43° SE 05:04:03 10° E visible
04 Jun 12.9 02:38:03 12° SSE 02:44:46 19° SE 02:54:58 10° E visible
05 Jun 12.6 02:57:40 15° S 03:04:46 25° SE 03:17:57 10° E visible
06 Jun 12.5 03:17:16 17° S 03:24:57 33° SE 03:40:17 10° E visible
07 Jun 12.4 03:36:50 17° SSW 03:45:17 40° SE 04:02:15 10° E visible
